TimeMDT,TemperatureF,Dew PointF,Humidity,Sea Level PressureIn,VisibilityMPH,Wind Direction,Wind SpeedMPH,Gust SpeedMPH,PrecipitationIn,Events,Conditions,WindDirDegrees,DateUTC
12:53 AM,39.0,25.0,57,29.92,10.0,SW,5.8,-,N/A,,Clear,220,2012-10-08 06:53:00
1:53 AM,46.9,21.9,37,29.90,10.0,Variable,3.5,-,N/A,,Clear,0,2012-10-08 07:53:00
2:53 AM,45.0,23.0,42,29.88,10.0,Calm,Calm,-,N/A,,Clear,0,2012-10-08 08:53:00
3:53 AM,44.1,23.0,43,29.87,10.0,WSW,4.6,-,N/A,,Clear,250,2012-10-08 09:53:00
4:53 AM,41.0,24.1,51,29.88,10.0,WNW,6.9,-,N/A,,Clear,290,2012-10-08 10:53:00
5:53 AM,44.1,21.9,42,29.87,10.0,Variable,3.5,-,N/A,,Clear,0,2012-10-08 11:53:00
6:53 AM,44.1,24.1,45,29.89,10.0,West,8.1,-,N/A,,Clear,260,2012-10-08 12:53:00
7:53 AM,48.0,21.0,34,29.88,10.0,West,3.5,-,N/A,,Clear,260,2012-10-08 13:53:00
8:53 AM,48.0,25.0,41,29.90,10.0,Calm,Calm,-,N/A,,Clear,0,2012-10-08 14:53:00
9:53 AM,48.0,27.0,44,29.90,10.0,NNW,10.4,-,N/A,,Clear,340,2012-10-08 15:53:00
10:53 AM,50.0,28.0,43,29.89,10.0,NNW,13.8,27.6,N/A,,Clear,340,2012-10-08 16:53:00
11:53 AM,52.0,28.9,41,29.86,10.0,North,15.0,26.5,N/A,,Clear,360,2012-10-08 17:53:00
12:53 PM,53.1,30.9,43,29.88,10.0,North,16.1,24.2,N/A,,Overcast,360,2012-10-08 18:53:00
1:53 PM,52.0,33.1,49,29.84,10.0,North,9.2,24.2,N/A,,Overcast,350,2012-10-08 19:53:00
2:53 PM,50.0,34.0,54,29.85,10.0,NNW,10.4,-,N/A,,Overcast,340,2012-10-08 20:53:00
3:53 PM,48.9,35.1,59,29.86,10.0,North,10.4,-,N/A,,Mostly Cloudy,360,2012-10-08 21:53:00
4:53 PM,48.0,35.1,61,29.88,10.0,North,9.2,-,N/A,,Partly Cloudy,350,2012-10-08 22:53:00
5:53 PM,46.9,36.0,66,29.88,10.0,North,11.5,21.9,N/A,,Mostly Cloudy,350,2012-10-08 23:53:00
6:42 PM,44.6,37.4,76,29.93,10.0,NNW,13.8,23.0,N/A,,Mostly Cloudy,340,2012-10-09 00:42:00
6:53 PM,44.1,37.0,76,29.91,10.0,NNW,15.0,25.3,N/A,,Mostly Cloudy,340,2012-10-09 00:53:00
7:20 PM,42.8,37.4,81,29.93,10.0,NNW,17.3,26.5,N/A,,Mostly Cloudy,340,2012-10-09 01:20:00
7:53 PM,43.0,37.9,82,29.91,10.0,North,15.0,23.0,N/A,,Overcast,350,2012-10-09 01:53:00
8:10 PM,42.8,37.4,81,29.95,10.0,NNW,18.4,25.3,N/A,,Overcast,340,2012-10-09 02:10:00
8:36 PM,39.2,37.4,93,29.95,10.0,North,19.6,25.3,N/A,,Overcast,350,2012-10-09 02:36:00
8:53 PM,39.0,37.0,93,29.94,10.0,North,15.0,24.2,N/A,,Overcast,360,2012-10-09 02:53:00
9:53 PM,37.9,36.0,93,29.97,10.0,North,16.1,24.2,0.00,Rain,Light Rain,360,2012-10-09 03:53:00
10:49 PM,37.4,35.6,93,29.99,10.0,NNW,16.1,26.5,0.01,,Overcast,330,2012-10-09 04:49:00
11:53 PM,36.0,34.0,93,29.99,10.0,NNW,18.4,26.5,0.01,Rain,Light Rain,340,2012-10-09 05:53:00